Location: Archemont
(49.1579°N, 1.7598°E)
Time: 12:23:47
(UTC+00:00)

Transit 2A - Pass Details

Date: 15 April 2024
Orbit: 593 x 958 km, 66.7° (Epoch: 30 May)

Event Time Altitude Azimuth Distance (km) Brightness Sun altitude
Rises 06:02:37 0° 153° (SSE) 2,831 9.3 9.1°
Maximum altitude 06:07:34 10° 103° (ESE) 1,987 10.1 9.9°
Drops below altitude 10° 06:07:45 10° 100° (E) 1,991 10.2 9.9°
Sets 06:12:44 0° 54° (NE) 2,998 10.1 10.7°
